Simultaneous Nadir Overpasses (SNOs) Predictions

Prediction of SNOs between GOES-17 and FY3D Satellite Orbit:

Table of predicted SNOs for the next 14.0 days since TLE Epoch: 11/18/2023
Index Date Time (GOES-17) GOES-17 Lat,Lon FY3D Lat,Lon Distance(km) Time Diff (sec)
1 11/18/2023 21:14:16 -0.01,-104.65 -0.07,-104.89 27.86 80
2 11/19/2023 20:58:29 -0.00,-104.65 0.93,-100.42 481.50 80
3 11/21/2023 09:20:46 0.00,-104.68 0.24,-105.78 125.24 80
4 11/22/2023 08:59:39 -0.00,-104.68 -0.77,-101.31 384.26 80
5 11/23/2023 21:24:43 -0.01,-104.65 -0.47,-106.69 232.95 80
6 11/24/2023 21:03:36 -0.01,-104.65 0.54,-102.22 276.89 80
7 11/26/2023 09:28:31 0.02,-104.68 0.68,-107.57 329.06 80
8 11/27/2023 09:07:25 0.02,-104.68 -0.33,-103.10 180.52 80
9 11/28/2023 21:32:28 -0.03,-104.65 -0.90,-108.48 437.12 80
10 11/29/2023 21:11:22 -0.03,-104.65 0.12,-104.01 72.50 80
